Torna al catalogo

QIANFAN-143

AttivoComunicazioniPO
NORAD 69089·PAYLOAD·🇨🇳 China

Lanciato May 12, 2026 da Taiyuan Satellite Launch Center

Loading…

Prossimi Passaggi (prossime 24 ore)

TLE

AggiornatoSource: Space-Track

Epoca: Sep 14, 2026, 14:10 UTC

1 69089U 26104S   26257.59088379  .00000101  00000-0  13797-3 0  9998
2 69089  88.9914 332.3235 0001981 106.1926 253.9443 13.51026711 17249

Traccia QIANFAN-143 in tempo reale con AllMySat

Download on the App Store